Temp
87 86 87 87 86 86 85 85 85 84 84 83 83 83 83 83 82 81 81 80 80 79 80 80 80 79 79 79 80 80 80 80 80 79 79 79 79 79 78 77 77 77 77 77 77 77 78 78 78 77 77 76 75 74 73 73 72 73 72 72 71 71 71
86 86 86 87 86 86 85 85 85 86 84 84 84 83 84 83 82 81 81 81 80 80 80 80 80 80 80 80 80 80 79 80 80 80 79 79 79 79 79 78 78 77 78 78 78 78 78 78 78 77 76 76 76 75 74 73 72 72 72 71 71 70 71
85 86 86 86 86 86 85 85 85 86 85 85 85 84 83 82 82 82 81 81 80 80 80 80 80 80 80 80 80 79 80 80 79 79 78 79 79 79 80 79 78 78 78 79 78 78 78 77 77 77 77 76 76 75 74 73 73 72 72 71 71 71 70
85 86 86 86 87 87 86 86 85 87 86 86 85 85 84 83 83 83 82 82 80 80 79 80 80 80 80 80 79 79 79 80 80 80 80 80 79 79 79 79 78 79 78 78 79 79 78 78 77 76 78 76 75 75 74 74 73 73 72 71 70 71 71
86 87 87 86 86 86 86 86 86 86 86 87 86 85 85 84 84 83 83 83 82 81 81 81 81 81 81 81 80 80 80 80 80 80 80 80 80 79 79 79 79 79 79 79 78 78 77 77 76 76 76 76 75 75 74 74 73 73 72 71 70 70 70
85 85 86 86 87 86 86 87 87 87 87 86 85 85 85 85 85 84 83 82 82 82 82 81 81 81 80 81 81 80 80 80 80 80 80 80 79 79 79 79 80 79 79 79 79 78 78 77 77 76 76 76 76 75 75 74 73 73 72 71 71 70 70
86 86 86 87 87 87 86 87 88 88 89 88 87 86 86 86 85 85 84 83 83 81 81 81 81 81 81 81 80 80 79 80 80 80 80 80 80 80 79 80 80 80 80 79 78 78 78 77 77 77 77 76 76 75 74 73 73 72 72 71 71 70 70
87 87 87 87 88 88 88 87 88 89 89 87 86 85 85 86 85 85 84 84 83 83 82 82 81 81 81 81 81 80 80 80 80 80 80 80 80 79 80 80 80 80 80 79 79 79 78 77 77 77 77 77 75 75 75 74 73 72 72 71 71 70 71
88 88 88 89 89 89 89 87 87 87 86 85 85 84 85 85 85 85 85 84 84 83 83 83 83 82 81 81 80 80 80 80 80 80 80 80 80 80 80 80 80 80 80 79 79 79 79 78 77 76 76 76 75 75 74 73 73 73 72 72 72 71 71
86 86 88 90 90 90 89 88 86 85 84 83 83 83 84 85 85 85 85 85 85 84 84 84 84 83 82 81 80 81 80 80 80 80 80 80 80 80 81 81 80 80 80 80 80 78 78 78 77 77 76 76 75 74 74 73 73 73 73 72 72 72 71
86 86 87 88 88 87 87 86 83 82 83 83 82 83 84 84 85 85 85 85 85 84 85 84 84 83 82 81 81 80 80 80 80 80 80 80 81 81 81 82 81 81 80 80 79 79 78 78 78 76 76 75 75 74 74 73 73 73 73 73 73 73 72
84 85 84 85 85 84 82 82 82 82 82 82 82 83 83 83 85 85 85 85 86 85 85 85 85 84 82 82 81 80 80 80 80 80 80 80 81 81 82 82 81 81 81 81 80 79 79 78 77 77 76 76 75 75 74 74 74 73 73 74 73 73 73
84 82 82 84 83 83 81 80 81 82 82 83 83 83 84 84 85 85 85 85 86 86 85 85 84 83 82 82 81 80 80 80 80 80 81 80 81 81 82 82 82 82 81 81 81 80 79 78 77 77 77 76 76 75 74 74 74 74 73 73 73 73 72
84 83 82 83 82 80 79 80 81 81 81 83 83 84 84 85 85 85 85 85 86 86 86 86 84 83 82 82 81 80 80 80 81 81 81 81 81 81 81 82 81 81 81 81 81 81 80 79 78 77 77 76 76 75 75 74 74 74 73 73 73 73 72
82 83 82 81 80 79 79 80 80 81 81 83 83 83 83 84 84 84 85 86 86 87 86 86 84 83 82 81 80 80 80 80 81 81 81 81 80 80 81 81 81 81 81 80 81 81 81 80 79 77 76 76 75 75 75 74 74 74 74 73 73 73 72
83 85 84 82 81 81 81 81 81 81 81 82 82 82 83 83 83 84 84 85 86 86 87 85 83 82 82 81 81 81 81 81 81 81 80 80 80 80 81 81 81 81 80 80 81 81 80 80 79 78 77 76 75 75 74 74 75 72 67 69 74 72 72
80 82 82 82 81 81 81 82 82 82 81 81 81 82 83 83 83 84 86 86 87 86 87 86 83 83 82 82 82 81 81 81 80 80 80 80 80 80 80 80 81 80 80 80 80 80 80 79 78 78 77 76 75 74 74 74 75 67 65 66 68 71 71
81 82 82 81 80 80 80 81 81 80 81 81 82 82 83 82 83 84 84 86 86 87 87 86 84 83 82 82 82 81 81 81 80 80 80 80 80 80 80 81 80 80 80 80 79 79 80 79 78 78 77 77 76 75 75 75 70 66 64 65 64 67 70
79 80 81 80 78 78 80 81 81 81 82 83 83 83 84 85 84 83 84 85 86 87 87 86 85 83 82 82 82 82 81 81 80 80 80 80 80 80 80 80 80 80 80 80 80 80 79 78 78 77 77 77 75 75 75 75 69 65 63 63 64 68 70
81 83 83 83 83 83 82 82 82 83 84 84 84 86 87 86 85 85 86 87 87 86 86 85 85 84 83 82 82 82 82 81 81 80 80 80 80 80 80 80 79 80 81 81 80 79 79 79 78 77 76 77 76 75 76 75 68 63 61 60 64 66 68
76 77 80 82 82 84 84 84 84 83 83 84 85 85 86 85 86 86 86 85 85 85 85 85 84 83 83 82 82 82 82 81 81 80 80 80 80 80 80 80 80 80 80 81 80 79 79 79 78 77 77 77 77 75 75 76 65 60 59 59 62 64 65
79 81 81 82 84 85 84 86 86 86 84 85 85 85 86 86 87 87 86 86 85 85 85 84 84 83 83 82 82 82 82 82 81 81 80 80 80 80 79 79 79 79 80 80 80 80 80 79 79 78 77 77 76 76 74 75 61 59 58 58 60 62 67
78 78 79 78 80 81 80 84 85 87 86 85 85 86 86 87 88 86 86 85 85 84 84 84 83 83 82 82 83 83 83 82 81 81 80 80 80 79 79 79 79 80 80 79 79 79 79 79 78 78 77 76 76 75 75 71 59 58 56 58 59 61 68
79 79 76 75 74 78 80 81 83 83 83 83 83 85 86 87 87 85 84 84 84 84 84 84 83 83 83 83 83 83 83 83 82 81 80 80 80 80 80 80 80 80 80 79 79 79 79 79 78 77 77 76 75 76 74 69 59 55 55 57 58 63 69
74 75 77 78 76 77 77 77 80 83 82 82 82 83 84 85 86 85 83 83 84 84 83 83 83 83 83 83 84 84 84 83 82 82 81 80 80 81 80 80 80 80 79 80 80 79 79 77 77 75 75 76 76 71 73 70 61 54 56 57 58 63 70
71 72 75 76 76 74 74 76 76 76 79 81 82 83 82 84 84 84 83 83 84 83 83 83 84 85 85 85 84 84 84 83 82 82 82 81 81 81 81 81 80 80 79 79 80 78 76 75 75 74 74 75 76 74 74 70 66 59 56 57 57 60 71
71 72 73 75 73 74 73 72 76 79 81 82 82 83 84 84 83 82 82 82 82 82 84 85 85 85 84 84 84 83 83 83 83 82 82 82 81 81 80 80 80 79 78 78 76 75 73 74 74 74 73 73 73 73 72 72 68 62 56 56 56 59 65
69 71 72 72 72 72 72 73 73 74 78 78 79 78 79 79 81 82 82 81 81 83 86 86 85 84 83 82 83 83 83 83 82 82 82 81 81 79 79 79 80 79 78 76 74 74 73 72 72 72 71 70 71 72 71 70 66 67 56 55 55 57 61
67 68 68 69 70 71 72 70 70 70 71 73 76 78 79 80 78 78 79 80 82 85 85 84 84 83 82 82 82 81 82 82 81 81 81 80 80 79 78 77 78 77 76 74 73 73 72 71 71 69 68 69 70 71 70 69 66 60 60 55 55 55 58
68 68 69 70 70 69 70 70 70 70 70 71 71 74 77 80 79 78 78 78 76 77 79 79 80 80 80 80 80 80 80 80 80 81 80 79 79 78 76 76 76 75 75 74 74 72 70 69 69 69 69 69 68 68 68 67 66 60 59 59 55 54 55
67 67 67 67 67 68 68 68 69 70 70 70 71 71 73 77 79 77 78 76 77 78 78 78 78 79 79 79 79 79 79 79 79 79 79 79 78 76 75 75 75 74 73 73 72 71 69 68 68 69 68 68 68 67 67 66 66 64 61 59 56 54 53
67 67 67 67 66 67 67 68 68 69 68 69 70 71 71 72 75 75 74 76 77 78 79 78 78 77 77 78 78 78 79 78 78 78 77 77 77 77 76 75 74 72 71 71 70 70 69 68 69 68 68 67 67 66 66 65 64 63 61 60 58 56 55
65 65 65 64 65 66 67 67 67 67 67 68 69 70 71 70 70 71 73 75 77 79 79 78 77 76 76 76 76 77 77 76 76 75 74 74 74 74 74 73 72 72 71 71 70 70 69 69 68 67 67 66 66 65 65 64 63 62 61 60 59 60 59
64 64 64 65 66 66 67 67 66 66 66 66 67 69 69 69 69 70 70 70 71 72 74 74 74 75 74 75 75 75 75 74 75 74 71 70 72 72 71 71 72 72 71 71 70 68 68 68 68 67 67 66 65 64 63 62 62 61 61 60 60 61 60
65 65 65 65 66 66 66 66 66 66 65 65 66 67 68 68 69 69 69 70 70 70 69 68 68 70 71 70 69 68 68 68 66 62 59 56 52 51 54 62 70 68 61 60 63 70 70 68 67 67 68 67 65 64 63 63 62 63 59 63 58 61 61
64 65 65 66 67 66 66 66 66 65 65 65 66 66 67 68 69 69 69 69 70 70 69 68 68 68 68 68 67 66 65 63 62 61 59 57 56 57 55 49 42 50 63 61 55 56 61 61 67 69 68 66 66 67 65 65 67 57 54 52 51 51 54
63 64 66 66 66 66 66 65 66 65 65 65 65 65 67 68 68 69 69 70 69 70 69 68 67 66 67 67 66 65 65 64 63 63 62 62 61 60 58 57 55 44 44 49 51 54 52 52 54 57 60 67 65 58 55 60 54 51 50 48 48 48 48
64 64 66 67 66 66 66 66 66 65 65 66 66 66 66 68 69 68 69 70 70 70 69 69 67 66 66 65 65 65 65 64 64 64 63 63 63 63 62 61 59 57 47 43 46 47 48 50 52 53 53 57 60 59 57 52 49 48 47 47 47 46 45
MSLP
1001.09 1001.61 1001.85 1002.02 1002.53 1002.85 1003.14 1003.29 1003.38 1003.85 1004.17 1004.61 1004.85 1005.17 1005.61 1005.93 1006.26 1006.66 1007.17 1007.53 1007.93 1008.38 1008.53 1008.78 1009.09 1009.49 1009.82 1010.02 1010.17 1010.38 1010.61 1010.90 1011.26 1011.66 1011.93 1012.05 1012.14 1012.41 1012.78 1012.97 1013.26 1013.49 1013.61 1013.93 1014.02 1014.09 1014.09 1014.22 1014.46 1014.61 1014.85 1015.02 1015.26 1015.46 1015.58 1015.73 1015.93 1016.05 1016.22 1016.46 1016.70 1016.85 1016.97
1001.09 1001.26 1001.34 1001.41 1001.85 1002.14 1002.26 1002.34 1002.61 1002.97 1003.49 1003.82 1004.22 1004.58 1004.93 1005.34 1005.70 1006.22 1006.49 1006.82 1007.14 1007.53 1007.90 1008.22 1008.58 1008.90 1009.22 1009.46 1009.70 1009.97 1010.34 1010.53 1010.82 1011.17 1011.49 1011.73 1011.85 1012.02 1012.14 1012.49 1012.78 1013.05 1013.17 1013.26 1013.41 1013.58 1013.73 1013.93 1014.09 1014.41 1014.70 1014.82 1015.02 1015.14 1015.38 1015.53 1015.70 1015.90 1016.09 1016.34 1016.61 1016.82 1016.93
1000.46 1000.49 1000.70 1000.93 1001.17 1001.41 1001.61 1001.85 1002.09 1002.26 1002.70 1003.17 1003.61 1004.09 1004.46 1004.70 1004.93 1005.34 1005.90 1006.41 1006.90 1007.17 1007.46 1007.73 1007.93 1008.26 1008.58 1008.97 1009.46 1009.73 1009.90 1010.17 1010.58 1010.93 1011.34 1011.49 1011.66 1011.78 1011.85 1012.09 1012.34 1012.58 1012.70 1012.82 1013.02 1013.29 1013.38 1013.70 1013.85 1014.05 1014.29 1014.61 1014.82 1015.02 1015.14 1015.34 1015.49 1015.70 1015.90 1016.17 1016.46 1016.73 1016.90
999.82 999.90 999.90 999.90 1000.05 1000.22 1000.53 1000.97 1001.46 1001.70 1001.97 1002.34 1002.73 1003.09 1003.66 1004.02 1004.17 1004.58 1004.97 1005.49 1006.22 1006.82 1007.34 1007.49 1007.66 1007.85 1008.05 1008.53 1009.05 1009.41 1009.70 1009.85 1010.09 1010.46 1010.78 1011.02 1011.29 1011.41 1011.73 1011.90 1012.09 1012.22 1012.53 1012.66 1012.73 1012.93 1013.14 1013.38 1013.66 1013.85 1014.05 1014.38 1014.66 1014.82 1014.97 1015.09 1015.29 1015.49 1015.70 1016.09 1016.38 1016.49 1016.61
999.02 998.93 999.26 999.66 999.93 1000.22 1000.49 1000.82 1001.05 1001.26 1001.58 1001.66 1001.85 1002.17 1002.61 1003.14 1003.78 1004.29 1004.70 1004.93 1005.34 1005.97 1006.26 1006.66 1006.97 1007.29 1007.53 1007.90 1008.41 1008.85 1009.22 1009.49 1009.78 1010.05 1010.38 1010.61 1010.85 1011.14 1011.46 1011.66 1011.73 1011.90 1012.02 1012.26 1012.46 1012.73 1012.97 1013.26 1013.53 1013.73 1013.97 1014.17 1014.49 1014.66 1014.82 1014.90 1015.14 1015.34 1015.61 1015.93 1016.29 1016.38 1016.49
998.90 999.14 999.17 999.29 999.49 999.66 999.90 1000.05 1000.22 1000.49 1000.78 1001.29 1001.73 1002.22 1002.49 1002.93 1003.38 1003.93 1004.17 1004.70 1005.14 1005.46 1005.78 1006.22 1006.61 1006.90 1007.34 1007.53 1008.02 1008.46 1008.82 1009.09 1009.34 1009.66 1010.02 1010.29 1010.66 1010.97 1011.14 1011.22 1011.34 1011.53 1011.82 1011.90 1012.09 1012.38 1012.58 1012.85 1013.14 1013.41 1013.73 1013.97 1014.22 1014.41 1014.58 1014.82 1014.97 1015.17 1015.41 1015.73 1015.97 1016.14 1016.34
998.26 998.41 998.70 998.82 998.90 999.17 999.34 999.46 999.53 999.66 999.78 1000.22 1000.70 1001.22 1001.90 1002.61 1003.02 1003.26 1003.73 1004.34 1004.66 1005.29 1005.78 1006.14 1006.22 1006.49 1006.85 1007.22 1007.70 1008.14 1008.58 1008.85 1009.14 1009.46 1009.66 1010.02 1010.22 1010.53 1010.70 1010.82 1010.90 1011.02 1011.09 1011.49 1011.82 1011.97 1012.34 1012.58 1012.78 1013.05 1013.34 1013.66 1013.90 1014.14 1014.38 1014.61 1014.90 1014.97 1015.17 1015.46 1015.70 1015.82 1015.93
997.29 997.93 997.90 997.97 998.22 998.22 998.49 998.78 998.93 999.05 999.46 1000.05 1000.90 1001.53 1001.93 1002.02 1002.46 1003.05 1003.38 1003.58 1004.14 1004.78 1005.09 1005.38 1005.78 1006.05 1006.46 1006.85 1007.22 1007.70 1008.05 1008.38 1008.66 1008.97 1009.34 1009.70 1009.93 1010.22 1010.34 1010.46 1010.49 1010.53 1010.90 1011.17 1011.29 1011.53 1011.90 1012.22 1012.41 1012.66 1012.97 1013.34 1013.58 1013.82 1014.05 1014.29 1014.53 1014.73 1014.90 1015.14 1015.34 1015.53 1015.58
996.41 996.58 997.05 997.29 997.34 997.53 997.82 998.17 998.49 998.85 999.41 1000.05 1000.41 1000.78 1001.09 1001.53 1002.02 1002.26 1002.53 1003.14 1003.61 1004.02 1004.38 1004.58 1004.93 1005.29 1005.82 1006.38 1006.85 1007.22 1007.49 1007.90 1008.29 1008.61 1009.02 1009.38 1009.58 1009.82 1009.90 1010.02 1010.14 1010.17 1010.53 1010.73 1011.02 1011.17 1011.41 1011.73 1012.05 1012.34 1012.70 1013.02 1013.26 1013.58 1013.85 1014.05 1014.29 1014.38 1014.53 1014.70 1014.90 1015.09 1015.26
996.38 996.70 996.53 996.38 996.49 996.82 997.17 997.61 998.14 998.82 999.53 999.97 1000.41 1000.82 1001.05 1001.17 1001.34 1001.66 1002.17 1002.58 1002.97 1003.46 1003.70 1004.05 1004.38 1004.85 1005.41 1005.93 1006.34 1006.61 1007.05 1007.49 1007.82 1008.26 1008.58 1008.93 1009.05 1009.34 1009.41 1009.53 1009.73 1009.82 1010.09 1010.34 1010.61 1010.97 1011.05 1011.29 1011.66 1012.05 1012.46 1012.78 1013.05 1013.34 1013.61 1013.90 1013.97 1014.02 1014.05 1014.17 1014.29 1014.53 1014.82
995.97 996.09 996.22 996.38 996.49 996.66 997.05 997.73 998.53 998.90 998.97 999.38 999.82 1000.17 1000.53 1000.93 1001.22 1001.53 1001.85 1002.05 1002.41 1002.66 1002.97 1003.41 1003.78 1004.34 1004.85 1005.38 1005.93 1006.29 1006.66 1007.02 1007.34 1007.78 1008.09 1008.38 1008.53 1008.82 1008.93 1009.14 1009.29 1009.46 1009.73 1010.05 1010.38 1010.49 1010.82 1011.09 1011.29 1011.78 1012.14 1012.46 1012.73 1013.14 1013.41 1013.46 1013.46 1013.61 1013.73 1013.78 1013.85 1014.09 1014.34
995.85 995.90 996.09 996.17 996.53 997.02 997.58 997.73 997.93 998.29 998.61 998.97 999.38 999.78 1000.17 1000.46 1000.66 1000.93 1001.22 1001.53 1001.70 1002.34 1002.73 1002.93 1003.17 1003.66 1004.29 1004.82 1005.38 1005.78 1006.14 1006.41 1006.73 1007.14 1007.46 1007.78 1008.05 1008.26 1008.46 1008.61 1008.85 1009.09 1009.34 1009.58 1009.97 1010.22 1010.46 1010.78 1011.14 1011.34 1011.70 1012.02 1012.41 1012.73 1012.93 1012.97 1012.97 1013.09 1013.29 1013.41 1013.58 1013.90 1014.14
995.66 995.85 996.05 996.22 996.49 996.78 997.05 997.66 997.93 997.97 998.17 998.38 998.70 999.05 999.41 999.70 1000.05 1000.34 1000.70 1001.09 1001.38 1001.61 1001.97 1002.29 1002.73 1003.17 1003.78 1004.26 1004.73 1005.22 1005.46 1005.73 1006.02 1006.38 1006.82 1007.14 1007.41 1007.66 1007.97 1008.22 1008.38 1008.66 1008.97 1009.09 1009.46 1009.85 1010.26 1010.49 1010.78 1010.90 1011.29 1011.73 1012.09 1012.41 1012.53 1012.58 1012.58 1012.78 1013.02 1013.17 1013.38 1013.70 1014.09
995.14 995.61 995.78 996.02 996.38 996.82 997.26 997.38 997.41 997.73 997.97 998.17 998.34 998.46 998.73 998.93 999.22 999.61 1000.09 1000.58 1000.78 1001.09 1001.61 1001.93 1002.34 1002.78 1003.22 1003.66 1004.17 1004.46 1004.73 1004.93 1005.26 1005.66 1006.05 1006.46 1006.85 1007.22 1007.46 1007.70 1008.02 1008.26 1008.49 1008.82 1009.22 1009.46 1009.70 1010.09 1010.38 1010.61 1011.02 1011.38 1011.73 1011.93 1012.05 1012.17 1012.26 1012.41 1012.61 1012.82 1013.09 1013.58 1014.02
995.61 995.66 995.82 996.14 996.38 996.58 996.85 997.17 997.17 997.38 997.61 997.73 997.90 998.34 998.58 998.82 999.05 999.29 999.61 999.90 1000.26 1000.61 1000.97 1001.17 1001.78 1002.29 1002.70 1003.14 1003.58 1003.66 1003.90 1004.34 1004.73 1005.05 1005.49 1005.93 1006.41 1006.82 1007.09 1007.34 1007.61 1007.85 1008.17 1008.46 1008.73 1008.90 1009.14 1009.46 1009.97 1010.53 1010.90 1011.14 1011.38 1011.61 1011.66 1011.78 1011.78 1011.85 1012.14 1012.58 1013.05 1013.46 1013.93
995.14 995.02 995.26 995.73 995.97 996.17 996.22 996.26 996.46 996.78 997.05 997.38 997.73 998.02 998.38 998.61 998.78 998.90 999.22 999.49 999.70 1000.02 1000.14 1000.73 1001.41 1001.85 1002.22 1002.53 1002.58 1002.90 1003.41 1003.85 1004.26 1004.70 1005.09 1005.61 1005.97 1006.26 1006.61 1006.97 1007.26 1007.58 1007.85 1008.09 1008.26 1008.49 1008.78 1009.22 1009.58 1010.02 1010.41 1010.82 1011.09 1011.22 1011.34 1011.29 1011.22 1011.22 1011.58 1012.05 1012.73 1013.41 1013.85
995.22 995.05 994.97 995.05 995.26 995.49 995.61 995.78 995.85 996.09 996.58 996.97 997.26 997.49 997.73 997.93 998.02 998.26 998.58 998.85 999.22 999.53 999.70 1000.22 1000.90 1001.26 1001.53 1001.82 1001.93 1002.53 1003.05 1003.58 1003.90 1004.26 1004.78 1004.97 1005.38 1005.78 1006.22 1006.58 1006.90 1007.22 1007.49 1007.73 1007.97 1008.22 1008.49 1008.85 1009.34 1009.61 1009.90 1010.26 1010.61 1010.85 1010.85 1010.73 1010.53 1010.78 1011.41 1012.05 1012.82 1013.70 1014.49
994.58 994.61 994.73 994.97 995.17 995.29 995.49 995.58 995.70 996.05 996.38 996.61 996.82 997.02 997.22 997.49 997.66 998.02 998.34 998.38 998.61 998.70 999.02 999.70 1000.14 1000.58 1000.85 1000.97 1001.58 1002.14 1002.61 1002.93 1003.34 1003.90 1004.17 1004.58 1004.97 1005.26 1005.66 1006.14 1006.58 1006.90 1007.14 1007.38 1007.70 1007.85 1008.09 1008.58 1008.82 1009.05 1009.38 1009.73 1010.02 1010.26 1010.17 1010.09 1009.97 1010.46 1011.17 1012.22 1013.26 1013.70 1013.38
994.49 994.53 994.49 994.70 995.02 995.14 995.22 995.38 995.29 995.49 995.73 995.97 996.29 996.49 996.34 996.38 997.09 997.53 997.38 997.61 997.49 997.90 998.73 999.14 999.46 999.85 1000.26 1000.58 1001.14 1001.58 1001.93 1002.34 1002.90 1003.26 1003.66 1003.93 1004.26 1004.73 1005.29 1005.78 1006.17 1006.53 1006.82 1007.05 1007.02 1007.34 1007.85 1008.05 1008.34 1008.66 1008.82 1009.14 1009.46 1009.61 1009.58 1009.58 1009.61 1010.22 1011.14 1012.41 1012.97 1012.78 1012.17
993.66 993.53 993.78 993.82 993.78 994.05 994.41 994.61 994.90 994.85 994.73 994.90 994.97 995.02 995.05 995.46 995.93 996.02 996.05 996.29 996.78 997.70 998.14 998.53 998.90 999.26 999.66 1000.09 1000.53 1000.85 1001.26 1001.78 1002.26 1002.73 1002.97 1003.29 1003.82 1004.34 1004.85 1005.29 1005.66 1005.82 1006.02 1006.29 1006.70 1007.14 1007.41 1007.58 1007.82 1008.02 1008.34 1008.49 1008.73 1008.97 1009.09 1009.17 1009.29 1010.05 1011.26 1012.05 1011.93 1011.49 1012.17
993.90 993.73 993.58 993.61 993.90 993.78 993.53 993.70 994.02 994.14 994.34 994.46 994.46 994.70 995.14 995.58 995.58 995.66 996.14 996.49 997.09 997.17 997.53 997.85 998.26 998.73 999.14 999.66 999.90 1000.29 1000.73 1001.22 1001.61 1002.05 1002.41 1002.90 1003.34 1003.85 1004.26 1004.61 1005.02 1005.41 1005.66 1005.93 1006.29 1006.58 1006.73 1006.90 1007.26 1007.46 1007.66 1007.97 1008.22 1008.58 1008.78 1008.70 1009.09 1010.02 1010.97 1011.17 1011.05 1011.22 1012.78
993.49 993.02 993.29 993.17 993.02 992.90 993.17 993.22 993.14 993.38 993.61 993.38 993.85 994.26 994.46 994.78 994.78 995.34 995.78 996.02 996.73 997.05 997.22 997.46 997.90 998.22 998.61 999.14 999.38 999.70 999.97 1000.46 1001.02 1001.46 1001.97 1002.46 1002.90 1003.38 1003.73 1004.02 1004.38 1004.82 1005.05 1005.41 1005.61 1005.73 1005.97 1006.29 1006.53 1006.93 1007.26 1007.49 1007.82 1008.17 1008.46 1008.53 1009.09 1009.90 1010.41 1010.70 1011.02 1011.38 1012.02
993.66 993.14 992.61 992.38 992.53 992.78 992.53 992.46 992.66 992.53 992.58 992.93 993.26 993.61 993.93 993.85 994.22 994.78 995.34 996.05 996.41 996.78 997.09 997.38 997.70 997.85 998.05 998.34 998.58 998.93 999.26 999.70 1000.29 1000.90 1001.41 1001.85 1002.41 1002.82 1003.14 1003.49 1003.85 1004.14 1004.34 1004.93 1005.14 1005.46 1005.70 1005.82 1005.97 1006.22 1006.73 1007.14 1007.49 1007.90 1008.22 1008.61 1009.09 1009.58 1010.05 1010.49 1010.85 1011.53 1011.85
993.85 993.22 992.73 992.61 992.66 992.66 992.49 992.41 992.46 992.61 992.97 993.34 993.58 993.41 993.34 993.49 993.97 994.58 995.26 995.66 995.90 996.41 996.90 997.22 997.34 997.22 997.41 997.70 997.85 998.17 998.53 998.97 999.53 1000.22 1000.73 1001.26 1001.73 1002.05 1002.38 1002.66 1002.97 1003.29 1003.53 1004.17 1004.58 1004.93 1004.97 1005.22 1005.70 1006.02 1006.29 1006.78 1007.22 1007.38 1007.93 1008.41 1008.93 1009.17 1009.61 1010.02 1010.29 1010.46 1010.93
995.34 994.82 993.85 992.78 992.14 992.26 992.58 992.85 992.90 992.66 992.70 993.05 993.61 993.46 993.34 993.58 994.05 994.78 995.29 995.38 995.58 995.90 996.41 996.70 996.66 996.70 996.90 996.93 997.02 997.38 997.82 998.29 998.85 999.46 1000.05 1000.61 1000.93 1001.29 1001.82 1002.14 1002.41 1002.61 1003.02 1003.38 1003.78 1004.22 1004.53 1004.97 1005.49 1005.85 1006.17 1006.34 1006.61 1006.90 1007.29 1007.82 1008.46 1008.82 1009.17 1009.53 1009.78 1010.26 1010.53
995.73 995.29 994.97 994.41 993.41 992.46 991.97 992.02 992.58 993.09 993.34 993.26 992.93 992.66 993.17 993.46 993.90 994.46 994.82 994.97 995.05 995.53 995.78 995.70 995.49 995.41 995.53 995.82 996.38 996.85 997.34 997.70 998.26 998.70 999.26 999.82 1000.26 1000.66 1001.02 1001.38 1001.97 1002.41 1002.82 1003.14 1003.41 1003.97 1004.38 1004.78 1005.22 1005.70 1006.02 1006.09 1006.34 1006.61 1006.78 1007.53 1008.41 1009.02 1009.05 1009.34 1009.78 1009.97 1010.17
995.93 995.53 995.26 994.85 994.58 993.61 992.66 991.93 992.17 992.58 992.66 992.58 992.38 992.46 992.66 993.02 993.61 994.05 994.14 994.34 994.90 995.17 994.73 994.34 994.38 994.73 995.22 995.70 996.22 996.58 996.90 997.14 997.53 998.05 998.49 998.97 999.61 1000.09 1000.70 1001.05 1001.53 1001.97 1002.53 1003.02 1003.41 1003.90 1004.38 1004.73 1005.02 1005.41 1005.70 1005.85 1006.02 1006.41 1006.93 1007.38 1008.09 1008.73 1008.90 1009.22 1009.66 1009.97 1010.05
996.22 995.70 995.29 995.09 994.82 994.38 993.85 993.05 992.41 992.49 992.61 992.34 992.22 992.41 992.90 993.53 993.85 993.53 993.58 994.02 994.29 993.78 993.17 993.41 993.93 994.41 994.90 995.41 995.73 996.02 996.38 996.78 997.09 997.49 998.09 998.61 999.34 1000.09 1000.58 1000.73 1001.09 1001.61 1002.17 1002.73 1003.34 1003.85 1004.29 1004.66 1004.97 1005.38 1005.73 1006.02 1006.22 1006.53 1006.97 1007.22 1007.49 1008.14 1009.02 1009.38 1009.66 1009.82 1009.82
996.73 996.58 996.22 995.70 995.29 994.85 994.38 994.22 993.49 992.97 992.73 992.22 992.14 992.09 992.09 992.49 993.46 993.93 994.05 994.17 993.46 992.82 992.85 993.22 993.58 994.05 994.58 995.05 995.53 995.85 996.09 996.38 996.85 997.38 997.82 998.38 998.85 999.58 1000.38 1000.78 1001.26 1001.73 1002.22 1002.82 1003.29 1003.73 1004.26 1004.61 1005.05 1005.53 1006.05 1006.38 1006.49 1006.66 1006.93 1007.22 1007.58 1007.82 1008.49 1009.14 1009.41 1009.53 1009.70
996.34 996.02 995.78 995.58 995.46 995.26 994.82 994.46 994.29 993.49 992.61 992.41 992.17 992.05 992.05 992.29 992.97 993.22 993.53 993.70 993.46 993.66 993.73 993.73 993.85 994.14 994.66 995.05 995.26 995.61 995.97 996.22 996.58 996.97 997.41 998.05 998.82 999.49 1000.26 1000.78 1001.09 1001.58 1002.05 1002.41 1002.85 1003.46 1004.09 1004.66 1005.02 1005.53 1006.09 1006.49 1006.90 1007.05 1007.22 1007.38 1007.61 1008.05 1008.17 1008.73 1009.22 1009.49 1009.82
996.58 996.38 996.17 996.02 995.61 995.05 994.78 994.85 994.66 994.70 994.38 993.66 993.09 992.41 991.90 991.82 992.46 993.02 993.17 992.90 992.61 993.02 993.61 994.14 994.38 994.53 994.78 995.02 995.26 995.58 995.90 996.22 996.58 996.93 997.34 997.85 998.38 999.38 1000.05 1000.61 1000.97 1001.73 1002.05 1002.38 1002.93 1003.46 1004.14 1004.70 1005.02 1005.49 1006.05 1006.49 1006.93 1007.22 1007.38 1007.49 1007.70 1008.09 1008.49 1008.58 1009.02 1009.53 1009.82
996.66 996.46 996.38 996.09 995.78 995.38 995.22 994.93 995.02 995.02 994.93 994.49 994.05 993.66 993.29 992.93 992.49 992.73 992.90 992.78 992.85 992.97 993.29 993.78 994.41 994.97 995.22 995.38 995.58 995.70 995.82 996.34 996.78 997.02 997.29 997.82 998.29 998.82 999.34 1000.02 1000.73 1001.41 1002.02 1002.46 1003.09 1003.58 1004.14 1004.73 1005.02 1005.41 1005.85 1006.41 1006.78 1007.05 1007.22 1007.46 1007.66 1008.05 1008.46 1008.93 1009.29 1009.58 1009.73
997.17 997.05 996.97 996.85 996.49 996.05 995.58 995.41 995.53 995.70 995.66 995.58 995.05 994.70 994.26 993.70 993.53 993.78 993.90 993.66 993.09 992.90 993.09 993.58 994.09 994.61 995.09 995.73 996.14 996.26 996.29 996.53 996.90 997.38 997.73 998.09 998.53 999.02 999.53 1000.02 1000.58 1001.09 1001.70 1002.22 1002.82 1003.46 1003.93 1004.41 1004.85 1005.34 1005.82 1006.29 1006.70 1006.93 1007.22 1007.49 1007.78 1008.09 1008.53 1008.93 1009.34 1009.58 1009.90
997.46 997.22 997.02 996.85 996.70 996.29 995.97 995.82 995.93 996.05 996.02 996.05 995.73 995.34 994.97 994.70 994.46 994.17 994.09 994.09 994.02 994.02 994.22 994.41 994.66 995.14 995.66 995.73 996.05 996.49 996.85 997.14 997.09 997.29 998.05 998.49 998.78 999.38 999.90 1000.29 1000.53 1001.05 1001.66 1002.02 1002.49 1003.22 1003.90 1004.29 1004.78 1005.22 1005.70 1006.22 1006.61 1007.05 1007.46 1007.85 1008.09 1008.34 1008.61 1009.02 1009.22 1009.46 1009.70
997.66 997.53 997.38 997.26 997.02 996.70 996.58 996.38 996.29 996.26 996.14 996.17 995.93 995.58 995.34 995.26 995.02 994.58 994.29 994.41 994.49 994.29 994.90 995.82 996.22 996.17 996.05 996.41 997.58 998.14 998.14 998.26 998.17 998.22 998.49 999.17 999.82 1000.66 1001.05 1000.90 1000.82 1001.38 1001.97 1002.26 1002.14 1002.38 1003.17 1003.97 1004.49 1004.82 1005.14 1005.58 1006.29 1006.97 1007.61 1007.85 1008.02 1007.85 1007.82 1008.14 1008.46 1008.82 1009.46
997.97 997.78 997.73 997.58 997.41 997.29 996.97 996.58 996.46 996.49 996.46 996.26 995.85 995.49 995.41 995.34 995.22 994.93 994.61 994.34 994.46 994.53 994.93 995.58 996.34 997.17 997.82 997.41 997.41 998.38 998.93 999.26 998.97 998.73 998.73 999.05 999.70 1000.58 1001.85 1002.66 1002.53 1002.22 1001.97 1002.53 1002.85 1002.66 1002.53 1002.85 1003.90 1004.34 1004.78 1005.41 1005.70 1005.82 1006.41 1006.82 1006.66 1007.05 1007.66 1008.09 1008.41 1008.61 1008.61
998.49 998.29 998.02 997.78 997.70 997.49 997.41 997.34 997.09 996.70 996.41 996.22 995.85 995.66 995.41 995.17 994.93 994.97 994.97 994.73 994.38 994.38 994.61 995.02 995.82 996.73 997.78 998.22 998.29 998.61 999.02 999.34 999.22 999.09 999.17 999.49 1000.05 1000.66 1001.41 1002.17 1002.85 1003.34 1003.41 1003.05 1002.93 1002.78 1002.97 1003.41 1003.70 1004.02 1004.22 1004.61 1005.49 1005.93 1006.02 1006.05 1006.41 1006.82 1007.41 1007.97 1008.41 1008.78 1009.14
998.53 998.46 998.14 997.85 997.82 997.70 997.53 997.41 997.26 997.17 997.05 996.73 996.46 996.26 995.97 995.49 995.17 995.26 995.17 995.22 995.09 994.85 995.14 995.17 995.58 996.41 997.41 998.34 998.82 999.41 999.90 999.90 999.78 999.38 999.29 999.85 1000.26 1000.85 1001.58 1002.17 1002.82 1003.46 1003.93 1003.93 1003.41 1003.34 1003.49 1003.73 1003.85 1004.09 1004.41 1004.53 1004.85 1005.66 1006.38 1006.38 1006.34 1006.61 1007.26 1007.85 1008.41 1008.85 1009.22
Wind_Speed
21 20 19 19 19 19 20 21 21 20 20 20 20 21 20 19 19 18 18 19 21 20 19 19 19 17 18 17 16 15 14 13 12 12 11 11 10 10 10 9 10 10 9 10 10 11 10 10 11 11 9 9 9 9 9 7 7 7 6 6 6 6 7
19 19 19 19 19 20 21 22 21 20 19 20 19 21 19 20 19 18 19 20 21 22 21 20 19 18 18 17 15 15 15 15 13 11 10 9 9 9 10 10 10 10 10 10 10 10 10 11 11 11 10 10 10 9 9 8 8 7 6 6 7 6 6
19 19 19 19 19 19 21 20 20 20 20 19 19 19 20 21 20 21 20 19 20 20 18 20 20 19 18 17 15 16 16 14 13 13 13 12 12 12 10 10 10 10 11 10 10 10 10 11 11 11 11 11 10 9 9 8 8 7 7 6 6 7 6
19 19 20 21 21 21 21 21 22 20 19 21 21 22 21 22 21 20 20 21 22 20 20 18 18 19 17 17 16 15 16 15 15 14 13 12 12 11 10 10 9 9 10 11 10 10 9 10 11 11 11 11 10 9 9 10 8 8 7 6 6 6 7
20 20 20 19 19 18 17 18 19 19 20 21 22 22 22 21 20 18 18 19 21 22 21 21 18 17 16 16 13 13 15 15 14 13 12 11 11 10 11 12 11 12 12 10 10 10 10 10 11 11 10 10 10 9 10 9 9 8 8 7 7 6 7
18 18 17 18 18 18 18 19 20 21 21 21 20 19 19 20 19 20 20 19 19 18 18 18 18 17 17 16 14 13 13 14 13 13 13 12 12 12 12 12 12 12 12 13 10 11 11 11 12 12 12 11 11 11 10 9 8 8 8 8 7 7 7
18 18 17 17 17 17 19 20 21 21 21 21 20 19 18 18 20 20 18 18 19 20 19 18 18 18 16 15 15 15 15 15 14 14 12 12 13 13 13 12 12 13 12 10 12 11 12 12 13 13 12 12 11 11 11 10 9 8 8 8 8 8 7
18 17 18 18 18 19 19 19 20 20 18 15 15 16 19 19 18 19 20 19 19 18 18 20 19 17 16 14 14 16 15 15 14 13 12 13 13 13 13 13 13 13 11 13 12 12 13 13 12 12 13 12 12 11 11 10 10 9 8 9 10 9 7
19 20 19 19 20 18 17 18 18 18 18 18 20 20 21 19 19 20 21 19 18 20 20 19 19 17 16 15 15 17 15 15 14 14 14 15 14 14 14 13 13 12 13 13 12 11 12 13 12 13 13 12 12 11 11 10 10 9 10 10 11 11 10
18 17 19 21 19 17 17 17 16 14 15 16 16 17 19 18 19 18 18 19 18 21 21 19 17 16 16 16 16 17 16 15 14 15 15 16 14 16 15 14 13 13 13 13 11 12 12 12 13 12 13 13 12 12 11 10 10 11 11 13 13 12 12
17 19 20 20 19 17 15 13 14 15 17 17 17 16 17 17 17 17 18 18 19 19 19 18 16 17 17 17 17 17 16 16 15 16 17 17 15 16 16 15 14 13 14 12 13 13 12 11 11 12 13 13 13 12 11 12 12 12 12 12 11 12 11
16 18 18 18 15 12 12 15 16 16 16 15 15 17 17 17 18 17 17 18 18 17 17 18 17 17 17 17 18 17 18 17 16 17 18 17 16 17 16 15 14 14 13 13 14 13 13 13 11 12 14 13 12 12 12 12 13 13 13 13 12 11 10
14 14 14 16 14 13 12 13 16 17 17 17 18 18 18 19 19 18 17 18 17 17 18 18 17 17 17 17 18 17 18 18 18 17 17 17 16 15 15 15 15 14 14 13 14 13 13 12 13 12 13 12 11 12 12 13 13 13 12 12 12 11 10
16 13 12 12 11 12 14 16 17 17 17 17 17 18 18 18 18 18 18 18 18 17 16 15 17 17 18 18 18 18 18 18 17 17 17 16 15 15 15 15 14 14 13 12 14 14 14 14 14 12 11 11 12 11 12 12 13 12 12 12 12 10 9
15 14 13 13 13 14 15 15 16 17 17 18 18 18 18 17 16 15 15 16 16 16 18 17 17 17 18 18 18 19 18 16 15 15 15 16 15 16 15 15 14 13 13 13 13 12 13 13 12 12 11 11 11 12 12 13 13 12 12 12 11 9 8
16 18 17 16 16 15 16 18 17 17 18 17 17 17 16 16 16 17 18 17 17 18 18 16 17 17 18 19 19 17 16 16 15 15 15 16 16 16 16 15 14 13 13 13 14 13 12 12 12 12 13 13 12 11 11 12 11 14 19 15 10 9 7
12 13 14 15 16 17 16 17 18 18 18 17 17 18 17 17 18 17 18 17 17 18 17 16 17 18 18 19 18 15 15 15 15 15 16 17 16 15 15 15 14 13 13 13 13 14 13 12 12 13 13 13 13 13 12 12 12 18 17 17 14 5 1
15 16 15 14 12 11 13 15 15 15 15 16 16 17 16 16 16 16 17 17 18 18 17 17 18 19 19 19 16 16 17 16 16 16 17 16 16 16 15 14 14 14 14 13 14 13 12 12 13 13 13 12 13 14 14 13 16 18 17 16 15 12 12
11 11 12 11 10 11 12 14 15 15 15 15 16 17 18 19 16 17 19 19 20 17 16 18 18 18 18 17 16 17 17 16 16 17 16 17 17 15 13 14 14 14 14 15 14 12 13 13 13 13 13 13 14 15 14 13 16 17 16 16 20 22 19
14 16 15 15 17 17 15 13 12 14 17 18 19 20 20 18 19 20 20 20 18 17 18 18 18 18 18 17 17 17 17 16 17 17 17 16 15 14 15 15 16 15 14 13 12 12 13 14 15 13 14 14 15 14 13 14 15 16 16 22 25 28 18
7 7 11 13 11 13 18 19 17 17 16 15 16 15 14 14 15 16 15 15 15 17 18 19 18 17 16 17 17 17 17 17 17 18 17 16 15 15 16 16 14 15 14 13 13 14 15 15 15 14 14 14 13 12 13 12 14 16 19 24 25 25 16
5 10 11 10 15 18 17 16 19 18 17 16 15 15 16 18 18 17 16 14 15 15 17 17 17 17 16 16 17 17 18 18 17 17 16 16 16 16 17 16 16 16 14 13 12 12 12 12 12 13 13 13 13 13 13 9 15 17 21 23 22 21 15
5 5 3 4 5 6 6 9 11 14 16 16 17 17 17 17 17 17 15 14 15 15 16 16 16 17 17 18 18 18 18 18 18 17 17 17 17 17 17 16 16 14 12 13 13 13 13 14 13 12 12 13 12 13 11 7 14 20 21 21 22 17 13
11 7 4 4 4 4 5 7 8 7 6 7 9 13 13 14 14 15 14 15 15 15 15 15 17 17 17 17 18 18 18 18 18 18 17 17 18 18 16 16 14 15 13 15 14 14 14 12 10 10 11 12 13 12 12 8 14 22 22 23 24 22 16
7 6 6 7 4 4 5 6 7 9 9 8 9 10 10 11 12 13 14 15 16 16 16 17 17 17 17 18 18 17 17 17 18 18 18 18 18 17 17 16 15 14 13 13 13 13 11 10 10 9 9 11 12 15 15 11 14 21 23 24 25 20 12
10 10 8 6 5 4 5 5 5 5 6 9 12 10 8 9 11 13 15 15 15 15 17 19 19 19 19 18 16 15 16 16 18 18 18 18 17 16 16 14 13 13 13 12 11 10 9 9 9 11 10 10 12 12 13 11 10 15 22 23 22 22 12
7 7 9 8 7 10 5 4 6 9 11 11 11 9 9 12 13 15 16 16 14 16 18 19 18 17 15 13 13 15 17 16 17 19 18 17 16 15 14 13 13 13 12 11 9 8 8 10 9 10 10 10 11 9 9 9 11 15 21 21 20 20 15
9 10 7 5 6 8 6 5 1 4 6 6 6 4 2 3 9 15 15 14 16 20 20 18 15 13 13 14 16 16 16 16 15 16 15 15 14 13 13 12 12 12 12 9 9 11 10 9 8 8 7 6 7 8 9 10 16 13 15 17 18 20 19
9 7 8 10 10 9 6 5 2 2 2 3 4 6 7 10 10 8 7 10 17 17 15 12 13 13 13 13 14 14 16 15 17 15 13 14 15 15 14 11 11 10 10 10 10 11 10 9 8 7 7 6 6 6 7 8 10 15 15 17 19 21 19
10 11 11 9 7 7 8 5 6 2 3 3 3 4 6 9 10 10 10 11 3 2 1 4 7 9 11 12 14 14 13 14 15 15 14 15 14 13 13 12 11 11 11 11 12 11 10 8 8 8 8 8 6 5 5 6 7 11 18 17 20 18 16
11 11 11 11 11 11 9 9 7 9 10 8 6 1 4 7 9 8 12 8 8 9 9 7 7 10 11 12 12 13 12 13 13 14 14 15 16 14 13 12 12 11 8 9 8 8 9 8 8 8 8 7 7 7 6 6 7 8 12 18 18 17 16
10 11 11 11 12 12 9 9 9 10 10 11 12 9 9 6 1 9 7 5 6 9 10 11 9 7 8 9 10 12 14 14 13 13 14 14 12 13 12 14 12 10 9 9 8 8 9 8 8 8 8 8 7 8 8 7 7 8 8 8 10 11 16
10 9 10 10 10 9 8 8 9 11 11 12 12 11 10 9 10 10 9 5 3 9 11 11 12 12 11 10 8 10 11 14 13 11 11 10 9 8 9 9 9 10 10 10 10 9 9 10 9 8 8 8 7 7 7 7 6 7 7 7 8 7 8
9 10 10 8 8 7 6 9 11 12 12 12 11 9 8 9 10 9 9 9 9 9 7 6 8 9 7 8 9 11 10 11 15 15 10 9 10 10 9 8 8 10 10 10 11 10 9 9 9 9 9 8 7 7 5 5 5 6 8 8 8 7 7
8 9 8 10 9 8 7 8 9 10 11 10 8 8 9 8 8 9 11 10 8 11 13 11 11 7 9 9 4 6 4 3 8 11 13 13 14 11 8 4 7 9 7 4 3 10 11 9 8 8 8 10 9 9 7 6 7 9 9 11 13 13 10
10 9 9 8 7 8 5 6 8 10 9 7 6 7 7 7 6 6 7 8 9 10 14 13 11 9 7 6 9 10 9 6 7 11 13 14 12 12 11 16 15 9 6 5 5 7 10 14 10 10 9 9 9 9 12 12 11 11 15 15 16 16 18
12 10 9 9 8 9 9 9 8 5 6 4 4 3 4 3 5 5 5 5 8 10 13 14 12 11 9 7 8 8 8 7 8 9 10 11 13 14 13 10 12 17 15 8 7 10 13 12 14 15 14 13 9 3 5 4 14 17 15 15 14 14 12
14 13 11 10 10 10 10 9 8 7 6 3 4 5 4 3 4 4 6 7 8 10 9 11 13 13 12 11 9 9 6 6 7 9 11 10 11 11 10 10 10 10 15 16 13 13 12 13 16 17 15 15 14 9 3 6 13 16 16 15 14 14 13
Wind_Direction
189 188 189 187 187 189 191 193 191 190 189 189 189 188 186 186 186 184 186 187 189 188 187 185 187 189 193 196 197 196 197 199 197 196 195 198 196 190 188 185 186 188 185 185 188 187 187 180 184 187 186 186 185 187 186 184 183 187 179 177 181 182 184
189 189 190 189 188 190 192 193 192 190 189 189 189 188 186 187 186 185 188 188 189 189 187 188 188 190 194 197 197 196 196 199 198 197 196 199 198 197 192 186 186 187 188 189 187 189 180 185 183 185 187 187 193 189 184 184 184 182 178 180 180 187 184
191 189 189 189 191 191 193 193 192 191 189 189 188 187 188 188 187 187 187 188 191 191 188 189 189 191 194 197 197 198 198 197 197 196 196 198 197 195 196 190 188 188 190 188 187 186 184 183 187 185 185 189 193 192 188 186 188 181 177 178 181 186 187
192 189 189 190 191 193 191 189 191 192 190 188 188 188 189 190 188 188 187 188 188 189 189 191 191 193 193 194 197 197 198 199 197 197 198 198 197 194 193 193 188 187 189 192 188 184 184 183 186 187 186 188 192 192 190 192 189 186 177 176 187 190 190
195 190 188 189 192 193 192 191 191 190 190 191 191 188 188 187 186 188 191 190 188 188 189 189 191 193 195 194 194 196 197 198 197 197 198 198 197 194 196 195 190 190 191 189 187 186 184 183 185 187 190 189 192 192 195 192 191 185 177 176 185 191 190
193 191 189 189 191 192 191 192 191 191 191 189 189 188 187 185 186 188 190 189 191 193 190 189 191 191 193 194 193 194 196 199 198 196 196 195 194 197 200 199 194 191 190 192 186 189 186 185 186 187 189 190 191 194 193 192 192 184 179 178 190 186 188
193 190 188 191 192 191 193 193 192 194 191 189 186 185 181 183 187 190 189 190 189 188 189 191 193 192 195 190 193 191 194 197 196 196 196 197 198 200 200 200 198 197 194 185 192 186 189 189 190 189 191 190 192 193 192 191 188 186 181 183 191 193 191
191 191 193 191 191 196 195 192 194 194 189 183 178 179 183 187 187 187 190 191 188 188 191 191 192 193 191 190 191 193 195 196 195 195 195 197 200 202 201 201 201 198 191 196 193 189 190 191 191 192 191 194 195 194 194 192 187 183 181 190 193 196 194
191 189 190 195 197 196 191 191 191 188 182 179 181 183 185 185 187 190 191 187 187 189 192 192 192 191 188 189 190 194 194 193 195 194 196 199 201 204 202 203 202 196 197 196 195 194 193 191 191 191 192 195 196 193 194 191 188 186 186 193 195 198 200
188 192 195 196 198 194 191 190 186 180 180 180 182 184 186 188 191 191 188 188 188 193 190 191 191 188 187 189 192 192 191 193 193 193 197 201 203 204 204 202 201 199 199 196 193 195 198 193 191 189 193 196 195 194 191 190 190 191 194 196 198 198 200
187 193 197 200 198 191 187 178 173 181 183 182 182 182 184 188 191 190 191 189 191 192 189 190 188 188 188 189 190 191 192 194 192 195 198 202 203 205 204 203 201 200 200 194 197 197 195 197 191 191 193 197 194 190 191 192 194 195 198 203 203 202 200
194 197 199 199 194 184 174 177 181 182 183 182 179 180 185 189 191 193 192 193 192 188 188 192 189 189 186 189 191 191 193 194 193 196 199 201 203 204 204 204 201 200 200 197 198 196 198 195 193 195 197 196 192 190 193 195 199 199 199 203 205 204 203
197 196 197 193 188 184 178 176 181 183 184 182 181 182 186 188 191 192 192 191 190 191 191 189 189 188 187 189 191 192 194 194 195 195 198 200 202 203 204 205 203 200 200 198 200 197 197 198 198 199 196 195 189 191 193 199 202 202 201 204 206 203 201
199 194 192 190 189 181 178 182 181 183 185 185 185 186 187 190 191 191 190 190 190 190 189 190 190 189 189 189 192 195 195 195 194 195 197 198 200 202 204 205 204 202 199 196 200 202 199 197 200 198 194 192 192 192 194 199 204 204 203 203 204 201 200
195 196 192 190 190 183 184 183 183 184 185 187 188 187 188 189 193 192 192 191 190 189 192 190 189 190 190 191 195 197 194 192 194 195 195 196 198 201 204 204 204 202 199 198 201 203 203 199 196 193 195 194 192 192 196 201 205 204 201 200 200 199 197
194 196 192 190 189 188 188 188 184 184 185 189 188 188 188 190 192 192 192 193 191 193 194 186 191 191 192 195 199 195 190 191 192 193 194 196 199 201 201 203 202 201 201 200 202 203 201 199 194 195 195 193 194 194 198 205 208 207 200 194 190 192 192
198 200 198 195 190 190 190 189 187 186 186 188 188 188 188 191 193 194 195 193 192 195 192 187 191 194 195 200 198 189 188 190 193 191 195 199 199 200 201 201 201 202 202 202 202 202 199 196 195 197 197 195 193 196 202 208 211 205 195 191 177 140 63
191 194 195 196 198 197 193 190 187 185 187 188 190 192 192 193 193 191 195 194 196 197 190 190 193 195 198 200 191 187 189 192 191 191 196 196 200 200 200 199 200 202 202 202 202 202 198 196 199 199 196 196 196 200 205 210 211 201 190 175 116 104 205
190 194 187 186 186 187 190 192 187 185 187 188 194 195 197 193 189 194 197 196 199 192 189 194 196 197 199 196 189 190 191 191 190 194 195 197 198 197 196 198 201 202 201 204 204 199 198 200 198 199 197 196 198 204 206 212 207 199 179 139 130 187 207
186 184 190 190 187 183 188 187 190 192 190 193 197 197 197 192 192 198 199 197 193 187 192 195 198 197 197 192 192 192 191 190 192 194 196 195 194 193 194 197 201 200 202 204 201 199 201 202 201 198 197 199 200 204 206 210 204 188 154 139 163 195 201
209 206 191 187 190 195 185 186 191 195 200 202 198 197 194 197 201 203 201 199 195 194 193 196 197 197 195 193 194 191 190 191 193 196 194 191 191 192 195 197 198 199 201 200 200 200 202 202 201 201 199 198 199 202 205 212 189 166 150 161 175 187 172
223 187 193 201 194 191 196 196 192 193 199 199 194 196 194 196 199 199 200 194 195 198 199 197 197 198 193 194 193 192 192 191 193 194 191 190 190 193 196 195 195 197 196 198 202 205 204 204 203 201 197 196 196 199 207 199 164 156 158 168 178 177 176
333 287 257 215 198 233 223 211 209 204 198 195 195 196 198 200 197 197 195 190 196 197 202 199 200 199 195 197 194 193 192 191 191 191 189 189 190 194 195 194 194 196 191 196 200 200 201 203 202 198 194 193 193 197 200 176 160 157 162 166 173 171 193
0 356 325 292 311 285 241 218 218 225 215 206 205 205 203 199 193 194 193 194 193 195 200 201 204 202 198 198 196 194 192 190 189 189 189 187 192 193 194 193 193 195 189 194 197 200 202 199 196 193 192 188 192 191 192 172 167 162 166 168 175 183 189
6 346 327 308 263 234 253 260 247 227 205 203 209 210 200 192 191 192 199 197 195 195 198 201 206 203 201 201 197 194 190 189 189 189 187 189 192 190 189 191 192 191 187 195 195 199 195 188 189 184 184 189 190 188 187 173 174 170 169 178 185 185 187
359 355 358 352 318 252 227 231 208 241 234 212 217 211 195 192 187 195 200 204 199 198 200 203 205 203 202 200 194 191 190 189 189 188 187 189 188 188 189 188 187 186 186 190 191 188 180 177 177 178 185 182 188 191 186 164 163 179 177 185 186 185 180
357 347 351 354 349 335 298 237 202 212 212 217 226 220 203 190 191 198 202 202 199 202 205 206 205 203 200 195 191 191 191 190 189 187 186 183 183 183 182 183 184 181 181 181 174 163 160 168 174 178 183 185 187 177 164 163 164 184 191 190 182 184 178
359 360 359 355 359 3 346 337 306 253 252 246 214 182 171 229 220 207 206 203 204 206 205 205 200 195 192 189 190 190 189 189 187 183 179 176 173 175 180 181 175 173 176 167 163 161 163 162 166 171 169 166 160 157 162 163 169 173 186 183 182 185 185
12 3 350 350 354 359 351 323 351 89 251 227 215 194 178 170 199 230 247 227 213 211 205 196 192 188 187 185 186 187 185 182 176 174 173 171 170 169 170 166 166 165 161 158 158 158 160 163 152 142 137 136 148 153 158 161 172 168 167 182 182 188 188
10 4 0 353 355 356 356 350 319 284 184 182 143 159 170 176 192 200 197 216 227 353 297 187 172 169 172 179 181 180 177 173 170 168 165 161 160 162 159 162 162 162 165 164 162 161 155 147 142 137 141 142 134 133 145 158 162 179 175 174 186 185 179
11 3 358 351 349 353 9 3 345 343 337 355 356 9 144 162 176 185 199 195 157 156 147 151 161 166 173 173 172 169 167 163 163 162 159 159 159 158 158 159 159 160 160 150 144 143 139 141 141 141 140 141 149 148 153 161 165 160 179 175 176 178 183
15 10 2 359 358 1 3 20 22 14 3 2 1 357 356 356 132 171 181 149 138 141 146 149 154 161 163 164 162 161 156 155 153 152 153 153 158 157 160 159 159 150 141 133 134 138 139 141 143 147 149 150 151 160 164 163 152 154 159 168 171 177 185
5 4 2 356 349 345 9 28 35 29 24 20 10 11 13 38 44 35 16 14 115 149 154 154 153 153 151 151 153 152 153 148 147 141 139 137 130 134 139 142 141 139 139 143 143 145 148 151 152 147 149 151 158 160 159 159 155 149 149 155 166 176 174
1 356 353 350 344 352 19 42 47 41 38 36 20 20 34 41 41 45 53 52 44 43 49 86 125 136 125 125 136 150 152 146 140 136 130 121 124 126 126 127 134 138 146 152 154 150 152 152 152 154 154 156 154 150 150 148 143 155 162 166 171 170 165
11 3 353 351 348 1 36 43 50 52 52 44 26 30 41 40 44 52 70 64 53 82 82 63 41 52 113 122 35 359 21 96 113 109 107 96 74 53 41 64 117 121 82 26 116 150 151 150 150 153 158 155 156 152 157 158 180 197 180 172 170 167 165
11 13 11 358 350 347 11 61 75 62 50 33 31 40 47 55 50 50 72 95 98 103 101 100 89 63 36 50 99 109 105 92 96 101 100 100 100 97 75 56 51 35 100 119 35 68 132 145 155 162 152 153 168 167 165 188 197 153 159 167 172 173 174
24 13 13 11 6 8 11 9 13 42 63 44 360 24 10 44 96 100 78 97 117 119 122 121 112 102 89 78 74 93 96 108 103 109 104 103 100 94 101 86 50 46 46 66 85 101 106 110 125 143 155 153 156 112 34 115 135 156 166 162 168 166 156
33 25 21 26 24 18 18 26 29 25 13 349 329 333 330 36 58 75 122 122 139 130 122 122 121 122 125 124 120 117 124 117 120 113 105 101 101 104 104 96 92 60 42 40 62 72 91 129 146 155 157 159 146 131 38 125 156 156 154 153 148 149 143